sat.trackr.live / text

‹ back to catalog

STARLINK-3765

NORAD 52295 · 2022-041AL

PAYLOAD ACTIVE UNKNOWN

§ Identity

Operator
Country
US
Launch date
2022-04-21
Launch site
AFETR
Launch vehicle
Mass (kg)
RCS (m²)

Purposes: comms

External: N2YO · Heavens-Above · Gunter

§ Orbital elements

Epoch: 2026-05-25T04:45:11.183904Z

Period
95.44 min
Inclination
53.2141°
Eccentricity
0.0001676
Mean motion
15.08843222 rev/d
Perigee alt
538.6 km
Apogee alt
540.9 km
Semi-major
6,917.9 km
B*
-6.5142e-5
RAAN
115.6588°
Arg perigee
74.9337°
Mean anomaly
285.1841°
Rev number
22,605

§ Raw data

STARLINK-37651 52295U 22041AL  26145.19804611 -.00001325  00000+0 -65142-4 0  99942 52295  53.2141 115.6588 0001676  74.9337 285.1841 15.08843222226057

JSON: /api/v1/satellites/52295 · /tle

For live sub-satellite position, see the globe view (requires WebGL).

§ Visibility from observer

Set your observer location to see the next 7 days of passes ≥ 10°. The values pass through the URL so the page stays shareable.

No JS? Fill the form by hand. The geolocation button needs JavaScript.